Flag for Germany Weather past 2 weeks in Regensburg, Bavaria, Germany

Now
74 °F

Overcast.


Feels Like: 77 °F
Forecast: 58 / 83 °F
Wind: 2 mph from Southeast

Location: Regensburg

Current Time: Jun 30, 2015 at 11:24:27 AM

Latest Report: Jun 30, 2015 at 11:00 AM


Visibility: 13 mi

Pressure: 30.13 "Hg

Humidity: 61%

Dew point: 60 °F

Location of RegensburgLocation

Historic Weather in Regensburg — Graph

°F

Regensburg temperature yesterday

Maximum temperature yesterday: 82 °F (at 6:00 PM)
Minimum temperature yesterday: 54 °F (at 4:00 AM)
Average temperature yesterday: 68 °F

Past Weeks' High & Low Weather Summary

 TemperatureHumidityPressure
High82 °F (Jun 29, 6:00 PM)99% (Jun 23, 2:00 AM)30.27 "Hg (Jun 23, 2:00 AM)
Low45 °F (Jun 25, 5:00 AM)33% (Jun 28, 6:00 PM)29.73 "Hg (Jun 23, 2:00 AM)
Average60 °F75%30.07 "Hg
* Reported Jun 15 10:00 AM — Jun 30 10:00 AM, Regensburg, Weather by CustomWeather, © 2015

Note: Actual official high and low records may vary slightly from our data, if they occured in-between our weather recording intervals... More about our weather records

Advertising

Regensburg weather history for previous 24 hours

 ConditionsComfort  
Time TempWeatherWind HumidityBarometerVisibility
10:00 AM
Tue, Jun 30
69 °FScattered clouds.2 mph66%30.15 "Hg12 mi
9:00 AM66 °FPassing clouds.2 mph75%30.15 "Hg12 mi
8:00 AM63 °FScattered clouds.2 mph80%30.15 "Hg12 mi
7:00 AM60 °FOvercast.1 mph87%30.16 "Hg9 mi
6:00 AM58 °FOvercast.1 mph94%30.17 "Hg9 mi
5:00 AM55 °FClear.No wind96%30.16 "Hg10 mi
4:00 AM57 °FClear.No wind93%30.16 "Hg12 mi
3:00 AM57 °FClear.No wind93%30.16 "Hg12 mi
2:00 AM59 °FClear.No wind89%30.16 "Hg17 mi
1:00 AM60 °FClear.No wind83%30.17 "Hg19 mi
12:00 AM63 °FPassing clouds.No wind78%30.17 "Hg22 mi
11:00 PM
Mon, Jun 29
64 °FClear.No wind73%30.16 "Hg25 mi
10:00 PM67 °FClear.1 mph63%30.14 "Hg37 mi
9:00 PM71 °FSunny.2 mph56%30.12 "Hg37 mi
8:00 PM75 °FSunny.2 mph47%30.10 "Hg31 mi
7:00 PM79 °FPassing clouds.5 mph41%30.08 "Hg31 mi
6:00 PM82 °FPartly sunny.3 mph41%30.07 "Hg31 mi
5:00 PM77 °FScattered clouds.1 mph47%30.09 "Hg28 mi
4:00 PM76 °FScattered clouds.1 mph52%30.10 "Hg28 mi
3:00 PM75 °FPassing clouds.2 mph47%30.11 "Hg28 mi
2:00 PM77 °FSunny.1 mph45%30.12 "Hg25 mi
1:00 PM74 °FSunny.2 mph47%30.14 "Hg22 mi
12:00 PM72 °FScattered clouds.2 mph55%30.14 "Hg22 mi
11:00 AM71 °FPartly sunny.2 mph54%30.15 "Hg25 mi
Weather by CustomWeather, © 2015

See weather overviewHow to use our weather pages